Time,TemperatureF,DewpointF,PressureIn,WindDirection,WindDirectionDegrees,WindSpeedMPH,WindSpeedGustMPH,Humidity,HourlyPrecipIn,Conditions,Clouds,dailyrainin,SoftwareType,DateUTC
2013-04-12 00:02:00,25.0,16.0,-100.00,North,0,8.0,14.0,66,-99.99,,,-99.99,,2013-04-12 00:02:00,
2013-04-12 00:12:00,25.0,16.0,-100.00,North,0,8.0,14.0,66,-99.99,,,-99.99,,2013-04-12 00:12:00,
2013-04-12 00:22:00,27.0,17.0,-100.00,North,0,6.0,14.0,64,-99.99,,,-99.99,,2013-04-12 00:22:00,
2013-04-12 00:32:00,27.0,17.0,-100.00,North,0,6.0,14.0,64,-99.99,,,-99.99,,2013-04-12 00:32:00,
2013-04-12 00:42:00,27.0,17.0,-100.00,North,0,6.0,14.0,64,-99.99,,,-99.99,,2013-04-12 00:42:00,
2013-04-12 00:52:00,23.0,17.0,-100.00,North,0,12.0,16.0,77,-99.99,,,-99.99,,2013-04-12 00:52:00,
2013-04-12 01:02:00,23.0,17.0,-100.00,North,0,12.0,16.0,77,-99.99,,,-99.99,,2013-04-12 01:02:00,
2013-04-12 01:12:00,23.0,17.0,-100.00,North,0,12.0,16.0,77,-99.99,,,-99.99,,2013-04-12 01:12:00,
2013-04-12 01:22:00,24.0,19.0,-100.00,North,5,7.0,11.0,79,-99.99,,,-99.99,,2013-04-12 01:22:00,
2013-04-12 01:32:00,24.0,19.0,-100.00,North,5,7.0,11.0,79,-99.99,,,-99.99,,2013-04-12 01:32:00,
2013-04-12 01:42:00,24.0,19.0,-100.00,North,5,7.0,11.0,79,-99.99,,,-99.99,,2013-04-12 01:42:00,
2013-04-12 01:52:00,23.0,20.0,-100.00,North,355,7.0,13.0,89,-99.99,,,-99.99,,2013-04-12 01:52:00,
2013-04-12 02:02:00,23.0,20.0,-100.00,North,355,7.0,13.0,89,-99.99,,,-99.99,,2013-04-12 02:02:00,
2013-04-12 02:12:00,23.0,20.0,-100.00,North,355,7.0,13.0,89,-99.99,,,-99.99,,2013-04-12 02:12:00,
2013-04-12 02:22:00,23.0,20.0,-100.00,North,0,11.0,16.0,89,-99.99,,,-99.99,,2013-04-12 02:22:00,
2013-04-12 02:32:00,23.0,20.0,-100.00,North,0,11.0,16.0,89,-99.99,,,-99.99,,2013-04-12 02:32:00,
2013-04-12 02:42:00,23.0,20.0,-100.00,North,0,11.0,16.0,89,-99.99,,,-99.99,,2013-04-12 02:42:00,
2013-04-12 02:52:00,25.0,19.0,-100.00,NNW,345,7.0,11.0,77,-99.99,,,-99.99,,2013-04-12 02:52:00,
2013-04-12 03:02:00,25.0,19.0,-100.00,NNW,345,7.0,11.0,77,-99.99,,,-99.99,,2013-04-12 03:02:00,
2013-04-12 03:12:00,25.0,19.0,-100.00,NNW,345,7.0,11.0,77,-99.99,,,-99.99,,2013-04-12 03:12:00,
2013-04-12 03:22:00,25.0,20.0,-100.00,North,5,7.0,16.0,82,-99.99,,,-99.99,,2013-04-12 03:22:00,
2013-04-12 03:33:00,25.0,20.0,-100.00,North,5,7.0,16.0,82,-99.99,,,-99.99,,2013-04-12 03:33:00,
2013-04-12 03:43:00,25.0,20.0,-100.00,North,5,7.0,16.0,82,-99.99,,,-99.99,,2013-04-12 03:43:00,
2013-04-12 03:52:00,23.0,18.0,-100.00,North,350,11.0,16.0,81,-99.99,,,-99.99,,2013-04-12 03:52:00,
2013-04-12 04:03:00,23.0,18.0,-100.00,North,350,11.0,16.0,81,-99.99,,,-99.99,,2013-04-12 04:03:00,
2013-04-12 04:13:00,23.0,18.0,-100.00,North,350,11.0,16.0,81,-99.99,,,-99.99,,2013-04-12 04:13:00,
2013-04-12 04:22:00,22.0,16.0,-100.00,North,350,13.0,17.0,76,-99.99,,,-99.99,,2013-04-12 04:22:00,
2013-04-12 04:33:00,22.0,16.0,-100.00,North,350,13.0,17.0,76,-99.99,,,-99.99,,2013-04-12 04:33:00,
2013-04-12 04:43:00,22.0,16.0,-100.00,North,350,13.0,17.0,76,-99.99,,,-99.99,,2013-04-12 04:43:00,
2013-04-12 04:52:00,22.0,14.0,-100.00,North,0,11.0,16.0,73,-99.99,,,-99.99,,2013-04-12 04:52:00,
2013-04-12 05:02:00,22.0,14.0,-100.00,North,0,11.0,16.0,73,-99.99,,,-99.99,,2013-04-12 05:02:00,
2013-04-12 05:12:00,22.0,14.0,-100.00,North,0,11.0,16.0,73,-99.99,,,-99.99,,2013-04-12 05:12:00,
2013-04-12 05:22:00,21.0,16.0,-100.00,NNW,345,9.0,12.0,79,-99.99,,,-99.99,,2013-04-12 05:22:00,
2013-04-12 05:32:00,21.0,16.0,-100.00,NNW,345,9.0,12.0,79,-99.99,,,-99.99,,2013-04-12 05:32:00,
2013-04-12 05:42:00,21.0,16.0,-100.00,NNW,345,9.0,12.0,79,-99.99,,,-99.99,,2013-04-12 05:42:00,
2013-04-12 05:52:00,21.0,15.0,-100.00,NNW,345,14.0,16.0,77,-99.99,,,-99.99,,2013-04-12 05:52:00,
2013-04-12 06:02:00,21.0,15.0,-100.00,NNW,345,14.0,16.0,77,-99.99,,,-99.99,,2013-04-12 06:02:00,
2013-04-12 06:12:00,21.0,15.0,-100.00,NNW,345,14.0,16.0,77,-99.99,,,-99.99,,2013-04-12 06:12:00,
2013-04-12 06:22:00,20.0,15.0,-100.00,North,0,10.0,12.0,79,-99.99,,,-99.99,,2013-04-12 06:22:00,
2013-04-12 06:32:00,20.0,15.0,-100.00,North,0,10.0,12.0,79,-99.99,,,-99.99,,2013-04-12 06:32:00,
2013-04-12 06:42:00,20.0,15.0,-100.00,North,0,10.0,12.0,79,-99.99,,,-99.99,,2013-04-12 06:42:00,
2013-04-12 06:52:00,20.0,15.0,-100.00,North,0,11.0,17.0,78,-99.99,,,-99.99,,2013-04-12 06:52:00,
2013-04-12 07:01:00,20.0,15.0,-100.00,North,0,11.0,17.0,78,-99.99,,,-99.99,,2013-04-12 07:01:00,
2013-04-12 07:11:00,20.0,15.0,-100.00,North,0,11.0,17.0,78,-99.99,,,-99.99,,2013-04-12 07:11:00,
2013-04-12 07:21:00,20.0,15.0,-100.00,North,0,11.0,16.0,80,-99.99,,,-99.99,,2013-04-12 07:21:00,
2013-04-12 07:32:00,20.0,15.0,-100.00,North,0,11.0,16.0,80,-99.99,,,-99.99,,2013-04-12 07:32:00,
2013-04-12 07:42:00,20.0,15.0,-100.00,North,0,11.0,16.0,80,-99.99,,,-99.99,,2013-04-12 07:42:00,
2013-04-12 07:52:00,20.0,15.0,-100.00,North,0,11.0,15.0,82,-99.99,,,-99.99,,2013-04-12 07:52:00,
2013-04-12 08:03:00,20.0,15.0,-100.00,North,0,11.0,15.0,82,-99.99,,,-99.99,,2013-04-12 08:03:00,
2013-04-12 08:12:00,20.0,15.0,-100.00,North,0,11.0,15.0,82,-99.99,,,-99.99,,2013-04-12 08:12:00,
2013-04-12 08:22:00,19.0,13.0,-100.00,North,0,9.0,12.0,76,-99.99,,,-99.99,,2013-04-12 08:22:00,
2013-04-12 08:32:00,19.0,13.0,-100.00,North,0,9.0,12.0,76,-99.99,,,-99.99,,2013-04-12 08:32:00,
2013-04-12 08:42:00,19.0,13.0,-100.00,North,0,9.0,12.0,76,-99.99,,,-99.99,,2013-04-12 08:42:00,
2013-04-12 08:52:00,19.0,13.0,-100.00,North,0,7.0,11.0,76,-99.99,,,-99.99,,2013-04-12 08:52:00,
2013-04-12 09:02:00,19.0,13.0,-100.00,North,0,7.0,11.0,76,-99.99,,,-99.99,,2013-04-12 09:02:00,
2013-04-12 09:10:00,18.0,13.0,-100.00,West,280,3.0,12.0,80,-99.99,,,-99.99,,2013-04-12 09:10:00,
2013-04-12 09:12:00,19.0,13.0,-100.00,North,0,7.0,11.0,76,-99.99,,,-99.99,,2013-04-12 09:12:00,
2013-04-12 09:22:00,19.0,13.0,-100.00,North,0,6.0,12.0,79,-99.99,,,-99.99,,2013-04-12 09:22:00,
2013-04-12 09:32:00,19.0,13.0,-100.00,North,0,6.0,12.0,79,-99.99,,,-99.99,,2013-04-12 09:32:00,
2013-04-12 09:43:00,19.0,13.0,-100.00,North,0,6.0,12.0,79,-99.99,,,-99.99,,2013-04-12 09:43:00,
2013-04-12 09:52:00,18.0,13.0,-100.00,West,280,3.0,12.0,80,-99.99,,,-99.99,,2013-04-12 09:52:00,
2013-04-12 10:02:00,18.0,13.0,-100.00,West,280,3.0,12.0,80,-99.99,,,-99.99,,2013-04-12 10:02:00,
2013-04-12 10:23:00,16.0,12.0,-100.00,NW,325,3.0,5.0,83,-99.99,,,-99.99,,2013-04-12 10:23:00,
2013-04-12 10:33:00,16.0,12.0,-100.00,NW,325,3.0,5.0,83,-99.99,,,-99.99,,2013-04-12 10:33:00,
2013-04-12 10:42:00,16.0,12.0,-100.00,NW,325,3.0,5.0,83,-99.99,,,-99.99,,2013-04-12 10:42:00,
2013-04-12 10:52:00,17.0,13.0,-100.00,NNW,340,4.0,5.0,81,-99.99,,,-99.99,,2013-04-12 10:52:00,
2013-04-12 11:02:00,17.0,13.0,-100.00,NNW,340,4.0,5.0,81,-99.99,,,-99.99,,2013-04-12 11:02:00,
2013-04-12 11:12:00,17.0,13.0,-100.00,NNW,340,4.0,5.0,81,-99.99,,,-99.99,,2013-04-12 11:12:00,
2013-04-12 11:22:00,17.0,12.0,-100.00,NW,310,1.0,7.0,80,-99.99,,,-99.99,,2013-04-12 11:22:00,
2013-04-12 11:32:00,17.0,12.0,-100.00,NW,310,1.0,7.0,80,-99.99,,,-99.99,,2013-04-12 11:32:00,
2013-04-12 11:42:00,17.0,12.0,-100.00,NW,310,1.0,7.0,80,-99.99,,,-99.99,,2013-04-12 11:42:00,
2013-04-12 11:52:00,16.0,12.0,-100.00,North,350,3.0,4.0,80,-99.99,,,-99.99,,2013-04-12 11:52:00,
2013-04-12 12:02:00,16.0,12.0,-100.00,North,350,3.0,4.0,80,-99.99,,,-99.99,,2013-04-12 12:02:00,
2013-04-12 12:12:00,16.0,12.0,-100.00,North,350,3.0,4.0,80,-99.99,,,-99.99,,2013-04-12 12:12:00,
2013-04-12 12:22:00,16.0,11.0,-100.00,WNW,290,0.0,2.0,80,-99.99,,,-99.99,,2013-04-12 12:22:00,
2013-04-12 12:32:00,16.0,11.0,-100.00,WNW,290,0.0,2.0,80,-99.99,,,-99.99,,2013-04-12 12:32:00,
2013-04-12 12:42:00,16.0,11.0,-100.00,WNW,290,0.0,2.0,80,-99.99,,,-99.99,,2013-04-12 12:42:00,
2013-04-12 12:52:00,17.0,9.0,-100.00,NW,320,2.0,4.0,72,-99.99,,,-99.99,,2013-04-12 12:52:00,
2013-04-12 13:03:00,17.0,9.0,-100.00,NW,320,2.0,4.0,72,-99.99,,,-99.99,,2013-04-12 13:03:00,
2013-04-12 13:12:00,17.0,9.0,-100.00,NW,320,2.0,4.0,72,-99.99,,,-99.99,,2013-04-12 13:12:00,
2013-04-12 13:21:00,17.0,9.0,-100.00,NW,320,7.0,12.0,69,-99.99,,,-99.99,,2013-04-12 13:21:00,
2013-04-12 13:32:00,17.0,9.0,-100.00,NW,320,7.0,12.0,69,-99.99,,,-99.99,,2013-04-12 13:32:00,
2013-04-12 13:42:00,17.0,9.0,-100.00,NW,320,7.0,12.0,69,-99.99,,,-99.99,,2013-04-12 13:42:00,
2013-04-12 13:52:00,17.0,7.0,-100.00,North,350,1.0,4.0,63,-99.99,,,-99.99,,2013-04-12 13:52:00,
2013-04-12 14:03:00,17.0,7.0,-100.00,North,350,1.0,4.0,63,-99.99,,,-99.99,,2013-04-12 14:03:00,
2013-04-12 14:12:00,17.0,7.0,-100.00,North,350,1.0,4.0,63,-99.99,,,-99.99,,2013-04-12 14:12:00,
2013-04-12 14:22:00,17.0,7.0,-100.00,SSW,195,2.0,2.0,64,-99.99,,,-99.99,,2013-04-12 14:22:00,
2013-04-12 14:32:00,17.0,7.0,-100.00,SSW,195,2.0,2.0,64,-99.99,,,-99.99,,2013-04-12 14:32:00,
2013-04-12 14:42:00,17.0,7.0,-100.00,SSW,195,2.0,2.0,64,-99.99,,,-99.99,,2013-04-12 14:42:00,
2013-04-12 15:02:00,16.0,7.0,-100.00,WSW,240,1.0,2.0,67,-99.99,,,-99.99,,2013-04-12 15:02:00,
2013-04-12 15:12:00,16.0,7.0,-100.00,WSW,240,1.0,2.0,67,-99.99,,,-99.99,,2013-04-12 15:12:00,
2013-04-12 15:22:00,17.0,8.0,-100.00,SE,145,1.0,2.0,67,-99.99,,,-99.99,,2013-04-12 15:22:00,
2013-04-12 15:33:00,17.0,8.0,-100.00,SE,145,1.0,2.0,67,-99.99,,,-99.99,,2013-04-12 15:33:00,
2013-04-12 15:43:00,17.0,8.0,-100.00,SE,145,1.0,2.0,67,-99.99,,,-99.99,,2013-04-12 15:43:00,
2013-04-12 15:52:00,17.0,8.0,-100.00,WNW,300,1.0,2.0,66,-99.99,,,-99.99,,2013-04-12 15:52:00,
2013-04-12 16:03:00,17.0,8.0,-100.00,WNW,300,1.0,2.0,66,-99.99,,,-99.99,,2013-04-12 16:03:00,
2013-04-12 16:13:00,17.0,8.0,-100.00,WNW,300,1.0,2.0,66,-99.99,,,-99.99,,2013-04-12 16:13:00,
2013-04-12 16:22:00,17.0,8.0,-100.00,North,10,1.0,4.0,66,-99.99,,,-99.99,,2013-04-12 16:22:00,
2013-04-12 16:33:00,17.0,8.0,-100.00,North,10,1.0,4.0,66,-99.99,,,-99.99,,2013-04-12 16:33:00,
2013-04-12 16:42:00,17.0,8.0,-100.00,North,10,1.0,4.0,66,-99.99,,,-99.99,,2013-04-12 16:42:00,
2013-04-12 16:52:00,17.0,8.0,-100.00,South,180,2.0,2.0,68,-99.99,,,-99.99,,2013-04-12 16:52:00,
2013-04-12 17:03:00,17.0,8.0,-100.00,South,180,2.0,2.0,68,-99.99,,,-99.99,,2013-04-12 17:03:00,
2013-04-12 17:12:00,17.0,8.0,-100.00,South,180,2.0,2.0,68,-99.99,,,-99.99,,2013-04-12 17:12:00,
2013-04-12 17:22:00,21.0,10.0,-100.00,ESE,115,2.0,4.0,62,-99.99,,,-99.99,,2013-04-12 17:22:00,
2013-04-12 17:33:00,21.0,10.0,-100.00,ESE,115,2.0,4.0,62,-99.99,,,-99.99,,2013-04-12 17:33:00,
2013-04-12 17:44:00,21.0,10.0,-100.00,ESE,115,2.0,4.0,62,-99.99,,,-99.99,,2013-04-12 17:44:00,
2013-04-12 18:07:00,22.0,10.0,-100.00,ESE,120,3.0,5.0,58,-99.99,,,-99.99,,2013-04-12 18:07:00,
2013-04-12 18:14:00,22.0,10.0,-100.00,ESE,120,3.0,5.0,58,-99.99,,,-99.99,,2013-04-12 18:14:00,
2013-04-12 19:32:00,29.0,11.0,-100.00,East,95,2.0,4.0,46,-99.99,,,-99.99,,2013-04-12 19:32:00,
2013-04-12 19:42:00,29.0,11.0,-100.00,East,95,2.0,4.0,46,-99.99,,,-99.99,,2013-04-12 19:42:00,
2013-04-12 19:52:00,29.0,11.0,-100.00,SSE,165,1.0,3.0,45,-99.99,,,-99.99,,2013-04-12 19:52:00,
2013-04-12 20:02:00,29.0,11.0,-100.00,SSE,165,1.0,3.0,45,-99.99,,,-99.99,,2013-04-12 20:02:00,
2013-04-12 20:12:00,29.0,11.0,-100.00,SSE,165,1.0,3.0,45,-99.99,,,-99.99,,2013-04-12 20:12:00,
2013-04-12 20:22:00,28.0,10.0,-100.00,SW,220,6.0,7.0,46,-99.99,,,-99.99,,2013-04-12 20:22:00,
2013-04-12 20:32:00,28.0,10.0,-100.00,SW,220,6.0,7.0,46,-99.99,,,-99.99,,2013-04-12 20:32:00,
2013-04-12 20:42:00,28.0,10.0,-100.00,SW,220,6.0,7.0,46,-99.99,,,-99.99,,2013-04-12 20:42:00,
2013-04-12 20:52:00,29.0,10.0,-100.00,NNW,340,5.0,6.0,44,-99.99,,,-99.99,,2013-04-12 20:52:00,
2013-04-12 21:02:00,29.0,10.0,-100.00,NNW,340,5.0,6.0,44,-99.99,,,-99.99,,2013-04-12 21:02:00,
2013-04-12 21:11:00,29.0,10.0,-100.00,NNW,340,5.0,6.0,44,-99.99,,,-99.99,,2013-04-12 21:11:00,
2013-04-12 21:21:00,31.0,11.0,-100.00,SW,235,1.0,6.0,42,-99.99,,,-99.99,,2013-04-12 21:21:00,
2013-04-12 21:32:00,31.0,11.0,-100.00,SW,235,1.0,6.0,42,-99.99,,,-99.99,,2013-04-12 21:32:00,
2013-04-12 21:42:00,31.0,11.0,-100.00,SW,235,1.0,6.0,42,-99.99,,,-99.99,,2013-04-12 21:42:00,
2013-04-12 21:52:00,33.0,11.0,-100.00,ENE,75,2.0,6.0,40,-99.99,,,-99.99,,2013-04-12 21:52:00,
2013-04-12 22:02:00,33.0,11.0,-100.00,ENE,75,2.0,6.0,40,-99.99,,,-99.99,,2013-04-12 22:02:00,
2013-04-12 22:12:00,33.0,11.0,-100.00,ENE,75,2.0,6.0,40,-99.99,,,-99.99,,2013-04-12 22:12:00,
2013-04-12 22:22:00,30.0,9.0,-100.00,SE,125,5.0,9.0,41,-99.99,,,-99.99,,2013-04-12 22:22:00,
2013-04-12 22:32:00,30.0,9.0,-100.00,SE,125,5.0,9.0,41,-99.99,,,-99.99,,2013-04-12 22:32:00,
2013-04-12 22:42:00,30.0,9.0,-100.00,SE,125,5.0,9.0,41,-99.99,,,-99.99,,2013-04-12 22:42:00,
2013-04-12 22:52:00,34.0,12.0,-100.00,WSW,255,1.0,3.0,39,-99.99,,,-99.99,,2013-04-12 22:52:00,
2013-04-12 23:03:00,34.0,12.0,-100.00,WSW,255,1.0,3.0,39,-99.99,,,-99.99,,2013-04-12 23:03:00,
2013-04-12 23:12:00,34.0,12.0,-100.00,WSW,255,1.0,3.0,39,-99.99,,,-99.99,,2013-04-12 23:12:00,
2013-04-12 23:22:00,31.0,10.0,-100.00,West,280,4.0,7.0,40,-99.99,,,-99.99,,2013-04-12 23:22:00,
2013-04-12 23:32:00,31.0,10.0,-100.00,West,280,4.0,7.0,40,-99.99,,,-99.99,,2013-04-12 23:32:00,
2013-04-12 23:42:00,31.0,10.0,-100.00,West,280,4.0,7.0,40,-99.99,,,-99.99,,2013-04-12 23:42:00,
2013-04-12 23:52:00,30.0,8.0,-100.00,West,280,5.0,10.0,39,-99.99,,,-99.99,,2013-04-12 23:52:00,